COSMOS 2477 (745) (37868 NORAD) Tracking and Keplerian Element Data

This shows tracking and keplerian element data for the satellite.

Feedback or suggestion? Click here.




ElementValue
Catalog37868
NameCOSMOS 2477 (745)
Epoch Orbit5215
Epoch Day198.68605248
Epoch Year2018
RAAN170.8992
Inclination64.5006
Eccentricity0.001835
Argument of Perigee247.1668
Mean Anonmoly157.2662
Mean Motion2.13101863
Decay Rate6.4E-07
L11 37868U 11064B 18198.68605248 .00000064 00000-0 00000-0 0 9990
L22 37868 64.5006 170.8992 0018350 247.1668 157.2662 2.13101863 52159

Live tracking and technical data element details for COSMOS 2477 (745) (NORAD 37868). COSMOS 2477 (745) can be tracked NOW for your location showing map with azimuth and elevation plus other details from your city location.

Track the satellite on the map from your city or location and see movement details for azimuth, elevation, latitude, longitude, range, height, and movement on the map or in text.







IsCatalogInMostPopularTable: catalog: 37868, numindb: 33
Update: records affected: 1



GetName: 37868 COSMOS 2477 (745)

Hit Count: updated at: Fri, 20 Jul 2018 20:34:48 GMT